When you browse on this site, cookies collect data to enhance your experience and personalize the content and advertising you see.
Visit our Privacy Policy to learn more. By continuing to use the site, you agree to this use of cookies and data.
  • en France
  • Liste des pays
  • À 7 jours
  • Température de l'eau
  • Carte satellitaire
  • Carte météo
  • Widgets météo
  • user-avatar
    Se connecter

    Météo par heure à Quito

    Ce jour, 16 Janvier, Mercredi

    Heure Température Précipitation Vent Pression Humidité
    00:00 +16°C° 0 mm 2 m/s 622 mmHg 89%
    01:00 +16°C° 0 mm 2 m/s 622 mmHg 91%
    02:00 +15°C° 0.1 mm 2 m/s 622 mmHg 92%
    03:00 +15°C° 0.1 mm 2 m/s 622 mmHg 92%
    04:00 +15°C° 0.1 mm 1 m/s 622 mmHg 93%
    05:00 +15°C° 0.1 mm 1 m/s 622 mmHg 93%
    06:00 +15°C° 0.1 mm 1 m/s 622 mmHg 93%
    07:00 +16°C° 0 mm 1 m/s 623 mmHg 93%
    08:00 +16°C° 0.1 mm 1 m/s 623 mmHg 92%
    09:00 +18°C° 0.1 mm 1 m/s 623 mmHg 90%
    10:00 +17°C° 0.1 mm 2 m/s 623 mmHg 88%
    11:00 +19°C° 0 mm 2 m/s 623 mmHg 80%
    12:00 +20°C° 0 mm 2 m/s 623 mmHg 71%
    13:00 +21°C° 0 mm 2 m/s 624 mmHg 62%
    14:00 +21°C° 0.1 mm 2 m/s 623 mmHg 64%
    15:00 +23°C° 0.1 mm 2 m/s 623 mmHg 65%
    16:00 +23°C° 0.1 mm 2 m/s 622 mmHg 67%
    17:00 +20°C° 0.1 mm 2 m/s 622 mmHg 74%
    18:00 +19°C° 0.1 mm 1 m/s 621 mmHg 81%
    19:00 +18°C° 0.1 mm 1 m/s 621 mmHg 89%
    20:00 +16°C° 0 mm 1 m/s 621 mmHg 91%
    21:00 +16°C° 0 mm 1 m/s 622 mmHg 93%
    22:00 +15°C° 0 mm 1 m/s 622 mmHg 95%
    23:00 +15°C° 0 mm 1 m/s 622 mmHg 95%

    Demain, 17 Janvier, Jeudi

    Heure Température Précipitation Vent Pression Humidité
    00:00 +14°C° 0 mm 1 m/s 621 mmHg 95%
    01:00 +14°C° 0 mm 1 m/s 621 mmHg 96%
    02:00 +14°C° 0 mm 1 m/s 621 mmHg 96%
    03:00 +14°C° 0 mm 1 m/s 621 mmHg 96%
    04:00 +13°C° 0 mm 1 m/s 621 mmHg 96%
    05:00 +14°C° 0 mm 1 m/s 621 mmHg 93%
    06:00 +15°C° 0 mm 1 m/s 622 mmHg 91%
    07:00 +16°C° 0 mm 1 m/s 622 mmHg 89%
    08:00 +18°C° 0 mm 2 m/s 623 mmHg 80%
    09:00 +20°C° 0 mm 2 m/s 624 mmHg 71%
    10:00 +24°C° 0 mm 2 m/s 624 mmHg 62%
    11:00 +24°C° 0.2 mm 2 m/s 624 mmHg 63%
    12:00 +24°C° 0.2 mm 2 m/s 624 mmHg 63%
    13:00 +25°C° 0.2 mm 2 m/s 623 mmHg 64%
    14:00 +24°C° 1.1 mm 2 m/s 622 mmHg 69%
    15:00 +24°C° 1.1 mm 2 m/s 622 mmHg 73%
    16:00 +23°C° 1.1 mm 2 m/s 621 mmHg 78%
    17:00 +21°C° 1 mm 2 m/s 621 mmHg 83%
    18:00 +19°C° 1 mm 2 m/s 621 mmHg 87%
    19:00 +17°C° 1 mm 2 m/s 621 mmHg 92%
    20:00 +18°C° 0.1 mm 1 m/s 621 mmHg 93%
    21:00 +16°C° 0.1 mm 1 m/s 622 mmHg 93%
    22:00 +16°C° 0.1 mm 1 m/s 622 mmHg 94%
    23:00 +16°C° 0.4 mm 1 m/s 622 mmHg 95%

    Après-demain, 18 Janvier, Vendredi

    Heure Température Précipitation Vent Pression Humidité
    00:00 +16°C° 0.4 mm 2 m/s 622 mmHg 95%
    01:00 +15°C° 0.4 mm 2 m/s 621 mmHg 96%
    02:00 +15°C° 0 mm 2 m/s 621 mmHg 96%
    03:00 +15°C° 0 mm 2 m/s 621 mmHg 96%
    04:00 +15°C° 0 mm 1 m/s 621 mmHg 96%
    05:00 +16°C° 0 mm 2 m/s 621 mmHg 95%
    06:00 +16°C° 0 mm 2 m/s 622 mmHg 94%
    07:00 +17°C° 0 mm 2 m/s 622 mmHg 93%
    08:00 +20°C° 0 mm 1 m/s 623 mmHg 83%
    09:00 +23°C° 0 mm 1 m/s 624 mmHg 73%
    10:00 +26°C° 0 mm 1 m/s 625 mmHg 63%
    11:00 +26°C° 0.9 mm 1 m/s 624 mmHg 64%
    12:00 +26°C° 0.9 mm 1 m/s 624 mmHg 66%
    13:00 +26°C° 0.9 mm 1 m/s 623 mmHg 67%
    14:00 +25°C° 2.1 mm 1 m/s 622 mmHg 73%
    15:00 +24°C° 2.1 mm 1 m/s 621 mmHg 78%
    16:00 +23°C° 2.1 mm 1 m/s 621 mmHg 84%
    17:00 +21°C° 1.9 mm 1 m/s 621 mmHg 86%
    18:00 +20°C° 1.9 mm 1 m/s 621 mmHg 89%
    19:00 +19°C° 1.9 mm 1 m/s 621 mmHg 91%
    20:00 +19°C° 0.5 mm 1 m/s 622 mmHg 91%
    21:00 +19°C° 0.5 mm 1 m/s 622 mmHg 92%
    22:00 +18°C° 0.5 mm 1 m/s 623 mmHg 92%
    23:00 +18°C° 0.1 mm 1 m/s 622 mmHg 93%

    19 Janvier, Samedi

    Heure Température Précipitation Vent Pression Humidité
    00:00 +18°C° 0.1 mm 1 m/s 622 mmHg 93%
    01:00 +17°C° 0.1 mm 2 m/s 621 mmHg 94%
    02:00 +16°C° 0.1 mm 2 m/s 621 mmHg 95%
    03:00 +16°C° 0.1 mm 2 m/s 621 mmHg 95%
    04:00 +16°C° 0.1 mm 2 m/s 621 mmHg 95%
    05:00 +18°C° 0 mm 1 m/s 621 mmHg 94%
    06:00 +18°C° 0 mm 1 m/s 622 mmHg 93%
    07:00 +19°C° 0 mm 1 m/s 622 mmHg 91%
    08:00 +20°C° 0.6 mm 1 m/s 623 mmHg 85%
    09:00 +22°C° 0.6 mm 1 m/s 623 mmHg 79%
    10:00 +24°C° 0.6 mm 2 m/s 624 mmHg 73%
    11:00 +24°C° 1.4 mm 2 m/s 624 mmHg 72%
    12:00 +25°C° 1.4 mm 2 m/s 623 mmHg 71%
    13:00 +25°C° 1.4 mm 1 m/s 623 mmHg 70%
    14:00 +24°C° 2.5 mm 1 m/s 622 mmHg 75%
    15:00 +23°C° 2.5 mm 1 m/s 622 mmHg 81%
    16:00 +22°C° 2.5 mm 1 m/s 621 mmHg 87%
    17:00 +20°C° 1.8 mm 2 m/s 621 mmHg 89%
    18:00 +19°C° 1.8 mm 2 m/s 621 mmHg 91%
    19:00 +18°C° 1.8 mm 2 m/s 622 mmHg 93%
    20:00 +17°C° 0.6 mm 2 m/s 622 mmHg 94%
    21:00 +17°C° 0.6 mm 2 m/s 622 mmHg 95%
    22:00 +17°C° 0.6 mm 2 m/s 622 mmHg 96%
    23:00 +17°C° 1.9 mm 2 m/s 622 mmHg 96%

    20 Janvier, Dimanche

    Heure Température Précipitation Vent Pression Humidité
    00:00 +17°C° 1.9 mm 2 m/s 622 mmHg 96%
    01:00 +17°C° 1.9 mm 2 m/s 621 mmHg 96%
    02:00 +17°C° 1.7 mm 2 m/s 621 mmHg 96%
    03:00 +17°C° 1.7 mm 2 m/s 621 mmHg 96%
    04:00 +16°C° 1.7 mm 2 m/s 621 mmHg 96%
    05:00 +17°C° 0.2 mm 2 m/s 622 mmHg 95%
    06:00 +17°C° 0.2 mm 2 m/s 623 mmHg 93%
    07:00 +19°C° 0.2 mm 1 m/s 624 mmHg 92%
    08:00 +19°C° 0.5 mm 2 m/s 624 mmHg 87%
    09:00 +21°C° 0.5 mm 2 m/s 624 mmHg 83%
    10:00 +23°C° 0.5 mm 2 m/s 625 mmHg 78%
    11:00 +23°C° 0.9 mm 2 m/s 624 mmHg 78%
    12:00 +24°C° 0.9 mm 2 m/s 624 mmHg 78%
    13:00 +24°C° 0.9 mm 2 m/s 623 mmHg 78%
    14:00 +24°C° 1.3 mm 1 m/s 623 mmHg 79%
    15:00 +23°C° 1.3 mm 1 m/s 622 mmHg 79%
    16:00 +23°C° 1.3 mm 1 m/s 622 mmHg 80%
    17:00 +22°C° 1.1 mm 1 m/s 622 mmHg 83%
    18:00 +21°C° 1.1 mm 1 m/s 622 mmHg 87%
    19:00 +19°C° 1.1 mm 1 m/s 622 mmHg 90%
    20:00 +19°C° 0.9 mm 1 m/s 622 mmHg 91%
    21:00 +19°C° 0.9 mm 1 m/s 623 mmHg 93%
    22:00 +18°C° 0.9 mm 1 m/s 623 mmHg 94%
    23:00 +18°C° 0.6 mm 1 m/s 623 mmHg 94%

    21 Janvier, Lundi

    Heure Température Précipitation Vent Pression Humidité
    00:00 +18°C° 0.6 mm 1 m/s 622 mmHg 95%
    01:00 +18°C° 0.6 mm 1 m/s 622 mmHg 95%
    02:00 +18°C° 1 mm 1 m/s 622 mmHg 95%
    03:00 +18°C° 1 mm 1 m/s 622 mmHg 95%
    04:00 +18°C° 1 mm 1 m/s 622 mmHg 95%
    05:00 +18°C° 0.2 mm 1 m/s 622 mmHg 93%
    06:00 +19°C° 0.2 mm 1 m/s 623 mmHg 92%
    07:00 +19°C° 0.2 mm 1 m/s 624 mmHg 90%
    08:00 +21°C° 0.1 mm 1 m/s 624 mmHg 85%
    09:00 +22°C° 0.1 mm 1 m/s 624 mmHg 80%
    10:00 +24°C° 0.1 mm 1 m/s 625 mmHg 74%
    11:00 +24°C° 0.4 mm 1 m/s 625 mmHg 70%
    12:00 +25°C° 0.4 mm 1 m/s 624 mmHg 67%
    13:00 +25°C° 0.4 mm 1 m/s 624 mmHg 63%
    14:00 +25°C° 0.7 mm 2 m/s 623 mmHg 69%
    15:00 +24°C° 0.7 mm 2 m/s 622 mmHg 76%
    16:00 +23°C° 0.7 mm 2 m/s 622 mmHg 82%
    17:00 +21°C° 0.6 mm 2 m/s 622 mmHg 86%
    18:00 +20°C° 0.6 mm 2 m/s 622 mmHg 90%
    19:00 +20°C° 0.6 mm 1 m/s 622 mmHg 94%
    20:00 +19°C° 0.6 mm 1 m/s 622 mmHg 93%
    21:00 +19°C° 0.6 mm 1 m/s 622 mmHg 93%
    22:00 +18°C° 0.6 mm 1 m/s 622 mmHg 92%
    23:00 +18°C° 0 mm 1 m/s 622 mmHg 93%
    Voir plus